Powrót do katalogu

STARLINK-35878

AktywnyŁącznośćVLEO
NORAD 67178·PAYLOAD·🇺🇸 United States

Wystrzelony Dec 17, 2025 z Cape Canaveral Space Force Station

Loading…

Następne Przeloty (najbliższe 24 godziny)

TLE

ŚwieżeSource: CelesTrak SupGP

Epoka: Sep 14, 2026, 20:57 UTC

1 67178C 25303R   26257.87340278 -.00027166  00000+0 -98384-3 0  2578
2 67178  43.0035 322.2727 0001834 276.0315 266.6013 15.27595421    17

Śledź STARLINK-35878 w czasie rzeczywistym z AllMySat

Download on the App Store